Weather History for Windsor Locks, CT

Change the Weather History Date:

Tuesday, September 23, 2014

  Actual Average Record
Temperature  
Mean Temperature 58 °F 61 °F  
Max Temperature 72 °F 72 °F 93 °F (1914)
Min Temperature 44 °F 50 °F 34 °F (1974)
Degree Days  
Heating Degree Days 7 5  
Month to date heating degree days 72 62  
Since 1 July heating degree days 74 74  
Cooling Degree Days 0 1  
Month to date cooling degree days 85 69  
Year to date cooling degree days 744 744  
Growing Degree Days 8 (Base 50)    
Moisture  
Dew Point 44 °F    
Average Humidity 61    
Maximum Humidity 83    
Minimum Humidity 38    
Precipitation  
Precipitation 0.00 in 0.14 in 3.99 in (1907)
Month to date precipitation 1.58 2.83  
Year to date precipitation 33.55 33.10  
Snow  
Snow 0.00 in 0.00 in 0.00 in (2002)
Month to date snowfall 0.0 0.0  
Since 1 July snowfall 0.0 0.0  
Since 1 September snowfall 0.0 0.0  
Snow Depth 0.00 in    
Sea Level Pressure  
Sea Level Pressure 30.28 in    
Wind  
Wind Speed 5 mph (West)    
Max Wind Speed 14 mph    
Max Gust Speed 17 mph    
Visibility 10 miles    
Events      
T = Trace of Precipitation, MM = Missing Value Source: NWS Daily Summary

Daily Weather History Graph

Daily Weather History Graph

Search for Another Location

Airport:

Trip Planner

Search our weather history database for the weather conditions in past years. The results will help you decide how hot, cold, wet, or windy it might be!

Date:

Astronomy

Sep. 23, 2014 Rise Set
Actual Time 6:39 AM EDT 6:46 PM EDT
Civil Twilight 6:11 AM EDT 7:14 PM EDT
Nautical Twilight 5:38 AM EDT 7:46 PM EDT
Astronomical Twilight 5:05 AM EDT 8:19 PM EDT
Moon 6:00 AM EDT (9/23) 6:23 PM EDT (9/23)
Length of Visible Light 13h 02m
Length of Day
12h 07m
Waning Crescent, 0% of the Moon is Illuminated
Sep 23
Waning Crescent
Sep 24
New
Oct 1
First Quarter
Oct 8
Full
Oct 15
Last Quarter

Hourly Weather History & Observations

Time (EDT) Temp. Windchill Dew Point Humidity Pressure Visibility Wind Dir Wind Speed Gust Speed Precip Events Conditions
12:51 AM 48.9 °F - 39.0 °F 69% 30.14 in 10.0 mi NNE 3.5 mph - N/A   Clear
1:51 AM 48.0 °F - 39.9 °F 74% 30.15 in 10.0 mi West 5.8 mph - N/A   Clear
2:51 AM 50.0 °F - 39.9 °F 68% 30.16 in 10.0 mi WSW 3.5 mph - N/A   Clear
3:51 AM 46.4 °F 45.2 °F 39.2 °F 76% 30.17 in 10.0 mi WNW 3.5 mph - N/A   Clear
4:51 AM 46.0 °F 44.8 °F 39.9 °F 79% 30.19 in 10.0 mi SW 3.5 mph - N/A   Clear
5:51 AM 44.1 °F 40.8 °F 39.0 °F 82% 30.21 in 10.0 mi West 5.8 mph - N/A   Partly Cloudy
6:51 AM 45.0 °F 41.2 °F 39.9 °F 82% 30.24 in 10.0 mi West 6.9 mph - N/A   Partly Cloudy
7:51 AM 50.0 °F - 41.0 °F 71% 30.26 in 10.0 mi West 3.5 mph - N/A   Partly Cloudy
8:51 AM 55.9 °F - 41.0 °F 57% 30.27 in 10.0 mi West 5.8 mph - N/A   Partly Cloudy
9:51 AM 59.0 °F - 41.0 °F 51% 30.29 in 10.0 mi Variable 4.6 mph - N/A   Partly Cloudy
10:51 AM 62.1 °F - 39.9 °F 44% 30.29 in 10.0 mi Variable 5.8 mph - N/A   Partly Cloudy
11:51 AM 64.0 °F - 41.0 °F 43% 30.29 in 10.0 mi Calm Calm - N/A   Partly Cloudy
12:51 PM 68.0 °F - 42.1 °F 39% 30.29 in 10.0 mi WSW 5.8 mph - N/A   Partly Cloudy
1:51 PM 69.1 °F - 44.1 °F 40% 30.28 in 10.0 mi WSW 9.2 mph - N/A   Partly Cloudy
2:51 PM 71.1 °F - 44.1 °F 38% 30.28 in 10.0 mi West 6.9 mph - N/A   Partly Cloudy
3:51 PM 72.0 °F - 44.1 °F 37% 30.29 in 10.0 mi West 11.5 mph - N/A   Partly Cloudy
4:51 PM 71.1 °F - 46.0 °F 41% 30.29 in 10.0 mi WNW 10.4 mph - N/A   Partly Cloudy
5:51 PM 70.0 °F - 46.9 °F 44% 30.30 in 10.0 mi WNW 8.1 mph - N/A   Partly Cloudy
6:51 PM 64.0 °F - 51.1 °F 63% 30.32 in 10.0 mi NW 3.5 mph - N/A   Partly Cloudy
7:51 PM 60.1 °F - 51.1 °F 72% 30.34 in 10.0 mi North 3.5 mph - N/A   Partly Cloudy
8:51 PM 57.9 °F - 51.1 °F 78% 30.37 in 10.0 mi Calm Calm - N/A   Clear
9:51 PM 55.9 °F - 50.0 °F 80% 30.40 in 10.0 mi West 5.8 mph - N/A   Partly Cloudy
10:51 PM 57.9 °F - 50.0 °F 75% 30.42 in 10.0 mi Calm Calm - N/A   Scattered Clouds
11:51 PM 55.0 °F - 50.0 °F 83% 30.43 in 10.0 mi Calm Calm - N/A   Mostly Cloudy